Regional Weather Roundup
Issued by NWS

Home | Current Version | Previous Version | Text Only | Print | Product List | Glossary Off
Versions: 1 2 3 4 5 6 7 8 9 10 11 12 13 14 15 16 17 18 19 20 21 22 23 24 25 26 27 28 29 30 31 32 33 34 35 36 37 38 39 40 41 42 43 44 45 46 47 48 49 50

000
ASUS43 KDMX 260603
RWRIA

WEATHER ROUNDUP FOR IOWA
NATIONAL WEATHER SERVICE DES MOINES IA
100 AM CDT FRI AUG 26 2016

NOTE: "FAIR" INDICATES FEW OR NO CLOUDS BELOW 12,000 FEET WITH NO
SIGNIFICANT WEATHER AND/OR OBSTRUCTIONS TO VISIBILITY.

* - THESE STATIONS ARE NOT NWS STATIONS...THUS NOT UNDER NWS
QUALITY CONTROL.  THEY ALSO DO NOT REPORT WEATHER SUCH
AS PRECIPITATION OR FOG.

IAZ001>003-012>014-020>022-031>034-043>046-260700-
   NORTHWEST IOWA

CITY           SKY/WX    TMP DP  RH WIND       PRES   REMARKS
SIOUX CITY       N/A     60  57  89 NW6       30.17S
6HR MIN TEMP:  58; 6HR MAX TEMP:  74;

SPENCER          N/A     54  52  93 W3        30.18S FOG
6HR MIN TEMP:  54; 6HR MAX TEMP:  72;

$$

IAZ055>058-069>071-079>083-090>094-260700-
   SOUTHWEST IOWA

CITY           SKY/WX    TMP DP  RH WIND       PRES   REMARKS
LAMONI           N/A     63  62  97 N3        30.13F
6HR MIN TEMP:  62; 6HR MAX TEMP:  73;

$$

IAZ047>049-059>061-072>074-084-260700-
   CENTRAL IOWA

CITY           SKY/WX    TMP DP  RH WIND       PRES   REMARKS
AMES             N/A     58  58 100 CALM      30.14R
6HR MIN TEMP:  58; 6HR MAX TEMP:  75;

DES MOINES       N/A     65  63  93 CALM      30.13R
6HR MIN TEMP:  65; 6HR MAX TEMP:  76;

MARSHALLTOWN     N/A     61  61 100 NW5       30.13R
6HR MIN TEMP:  59; 6HR MAX TEMP:  74; 6HR PCP: TRACE;

$$

IAZ004>006-015-016-023>025-035-036-260700-
   NORTH CENTRAL IOWA

CITY           SKY/WX    TMP DP  RH WIND       PRES   REMARKS
ESTHERVILLE      N/A     53  53 100 N5        30.17S
6HR MIN TEMP:  53; 6HR MAX TEMP:  69;

FORT DODGE *     N/A     61  55  82 N3        30.16S
MASON CITY       N/A     59  57  93 N5        30.17R
6HR MIN TEMP:  58; 6HR MAX TEMP:  73;

$$

IAZ007>011-017>019-026>030-037>042-050>054-066-260700-
   NORTHEAST IOWA

CITY           SKY/WX    TMP DP  RH WIND       PRES   REMARKS
CEDAR RAPIDS     N/A     61  61 100 CALM      30.12R
6HR MIN TEMP:  60; 6HR MAX TEMP:  73;

CLINTON *        N/A     62  62 100 CALM      30.12S
DUBUQUE          N/A     63  60  90 W5        30.13S
6HR MIN TEMP:  63; 6HR MAX TEMP:  72;

WATERLOO         N/A     61  59  93 CALM      30.12R
6HR MIN TEMP:  60; 6HR MAX TEMP:  73;

$$

IAZ064-065-067-068-078-260700-
   EAST CENTRAL IOWA

CITY           SKY/WX    TMP DP  RH WIND       PRES   REMARKS
DAVENPORT        N/A     64  62  93 N6        30.12R
6HR MIN TEMP:  63; 6HR MAX TEMP:  73;

IOWA CITY        N/A     65  62  90 CALM      30.13S
6HR MIN TEMP:  64; 6HR MAX TEMP:  75;

QUAD CITIES      N/A     65  62  90 CALM      30.11R
6HR MIN TEMP:  64; 6HR MAX TEMP:  77;

$$

IAZ062-063-075>077-085>089-095>099-260700-
   SOUTHEAST IOWA

CITY           SKY/WX    TMP DP  RH WIND       PRES   REMARKS
BURLINGTON       N/A     69  66  90 NE5       30.10S
6HR MIN TEMP:  68; 6HR MAX TEMP:  76;

OTTUMWA          N/A     64  61  90 N3        30.12S
6HR MIN TEMP:  64; 6HR MAX TEMP:  72;

$$

ABBREVIATIONS USED IN REMARKS
   TC - TEMPERATURES IN CELSIUS
  WCI - WIND CHILL INDEX
   HX - HEAT INDEX
  VSB - VISIBILITY
$$




USA.gov is the U.S. government's official web portal to all federal, state and local government web resources and services.